Terug naar catalogus

COSMOS 1912

ActiefMilitairPO
NORAD 18791·PAYLOAD·🇷🇺 Russia

Gelanceerd Jan 15, 1988 vanaf Plesetsk Cosmodrome

Loading…

Volgende Passages (komende 24 uur)

TLE

VersSource: Space-Track

Epoch: Sep 14, 2026, 04:48 UTC

1 18791U 88002D   26257.20022993  .00000030  00000-0  10570-3 0  9992
2 18791  82.6132 181.6818 0009278 260.3172 261.2784 12.65073271785149

Volg COSMOS 1912 in realtime met AllMySat

Download on the App Store